[[{"header":{"parameterUnit":"m.s-1","parameterCategory":1,"la1":30.2991,"la2":30.254,"lo1":-89.0895,"lo2":-89.0444,"dy":0.0017,"dx":0.0017,"nx":28,"ny":28,"refTime":"2025-07-20T09:00:00:Z","depth":0,"parameterNumber":2,"parameterNumberName":"U-component_of_WINDS"},"data":[0,0,0,0,0,0,0,0,0,0,0,0,0,0,0,0,0,0,0,0,0,0,0,0,0,0,0,0,0,0,0,0,0,0,0,0,0,0,0,0,0,0,0,0,0,0,0,0,0,0,0,0,0,0,0,0,0,0,2.4294,2.4296,0,2.4429,2.443,2.4432,2.4405,2.4403,2.44,2.4398,2.4538,2.4544,2.455,0,0,0,0,0,0,0,0,0,0,0,0,0,2.4015,2.402,2.4294,2.4296,2.4298,2.4428,2.443,2.4432,2.4405,2.4402,2.4399,2.4397,2.4536,2.4543,2.455,0,0,0,0,0,0,0,0,0,0,0,0,0,2.4142,2.4022,2.4294,2.43,2.4302,2.4428,2.443,2.4433,2.4406,2.4402,2.4399,2.4395,2.4533,2.4542,2.4551,2.4681,0,0,2.4579,2.4583,0,0,0,0,0,0,0,0,2.4135,2.4152,2.4297,2.43,2.4302,2.4396,2.4383,2.4516,2.4407,2.4367,2.4398,2.4393,2.4494,2.4506,2.4539,2.4687,2.4693,2.458,2.4585,2.4589,2.4591,0,0,0,0,0,0,0,2.4126,2.4146,2.4347,2.43,2.4302,2.4296,2.431,2.4408,2.4449,2.437,2.4368,2.4384,2.4494,2.4531,2.4542,2.4695,2.4579,2.4587,2.4593,2.4596,2.4953,2.4957,0,0,0,0,0,0,2.4115,2.4139,2.4343,2.4352,2.4207,2.4304,2.432,2.437,2.4448,2.4456,2.4387,2.4383,2.4517,2.4532,2.4547,2.4701,2.4589,2.4597,2.4602,2.4949,2.4954,2.4958,0,0,0,0,0,0,2.4109,2.4133,2.4338,2.4245,2.427,2.4313,2.4369,2.4374,2.441,2.4461,2.4469,2.4417,2.4515,2.4534,2.4647,2.4706,2.4601,2.461,2.4944,2.495,2.4956,2.5012,0,0,0,0,0,0,2.4101,2.4131,2.4181,2.4246,2.4275,2.4435,2.4373,2.438,2.4426,2.4421,2.4491,2.4499,2.4513,2.4633,2.4656,2.4716,2.4617,2.4939,2.4947,2.4954,2.5005,2.502,2.5032,0,0,0,0,0,2.4091,2.4192,2.4183,2.4208,2.4338,2.4439,2.4455,2.4469,2.4431,2.4481,2.4513,2.4497,2.4696,2.4645,2.467,2.4734,2.4935,2.4945,2.4954,2.4999,2.5017,2.5031,0,0,0,0,0,0,2.4134,2.4201,2.4192,2.4317,2.4372,2.4434,2.4497,2.4488,2.4555,2.4548,2.4563,2.4579,2.4693,2.4725,2.4667,2.4862,2.481,2.4825,2.4837,2.4854,2.4867,2.4855,2.4624,0,0,0,0,0,2.4158,2.4234,2.4288,2.4394,2.4422,2.4455,2.4499,2.4505,2.4563,2.4586,2.4627,2.4684,2.4759,2.4809,2.4881,2.501,2.5024,2.5067,2.508,2.5091,2.5102,2.5171,2.519,2.4988,2.4988,2.4988,0,0,2.4209,2.4255,2.4302,2.4404,2.4447,2.4524,2.4475,2.456,2.4617,2.4599,2.4706,2.4739,2.4803,2.4924,2.4979,2.4955,2.5161,2.5102,2.511,2.5117,2.5182,2.5201,2.5218,2.4994,2.4993,2.4992,0,0,2.434,2.4383,2.4474,2.4518,2.4583,2.4604,2.4626,2.4689,2.4709,2.4817,2.4805,2.4874,2.5004,2.5049,2.509,2.5236,2.5223,2.526,2.5328,2.5395,2.541,2.5424,2.5474,2.5492,2.5272,2.5272,2.5272,0,2.4394,2.451,2.4523,2.4608,2.4652,2.4638,2.473,2.4773,2.4859,2.489,2.4861,2.5022,2.5065,2.5195,2.523,2.5264,2.5288,2.5251,2.5407,2.5421,2.5435,2.5482,2.5501,2.5276,2.5275,2.5275,2.5275,0,2.4573,2.4653,2.4719,2.4801,2.4853,2.4941,2.4966,2.5018,2.5019,2.5043,2.5152,2.5203,2.5284,2.5316,2.5319,2.5446,2.5428,2.5403,2.5351,2.5457,2.5502,2.5521,2.5281,2.528,2.5279,2.5278,0,0,2.4735,2.4821,2.4844,2.488,2.4951,2.5013,2.51,2.5178,2.5221,2.5281,2.5353,2.5463,2.544,2.5485,2.5493,2.5552,2.5661,2.552,2.5521,2.5542,2.5801,2.5818,2.5839,2.5653,2.5657,2.566,2.5795,0,2.487,2.5023,2.5036,2.5173,2.5246,2.5233,2.5309,2.536,2.5385,2.5451,2.5479,2.5555,2.552,2.5547,2.5604,2.5636,2.5713,2.5627,2.572,2.5723,2.5701,2.5863,2.5881,2.6006,2.5813,2.5816,2.5818,0,2.5049,2.5112,2.5255,2.5313,2.5345,2.5412,2.5483,2.5547,2.5605,2.5618,2.5668,2.5668,2.5757,2.5702,2.5824,2.5765,2.5804,2.5825,2.583,2.5838,2.5775,2.5872,2.6046,2.6064,2.5846,2.5844,2.5842,0,2.5149,2.527,2.5371,2.5402,2.5473,2.5521,2.5552,2.5606,2.5652,2.5714,2.5744,2.5817,2.5856,2.5913,2.5931,2.589,2.6052,2.5999,2.6064,2.6064,2.6097,2.6095,2.6278,2.6127,2.6126,2.6126,2.6126,0,2.5298,2.5386,2.5416,2.5478,2.5576,2.559,2.5686,2.5716,2.5763,2.583,2.5826,2.5889,2.591,2.5977,2.5993,2.609,2.6109,2.6121,2.6124,2.612,2.6118,2.6145,2.6136,2.6131,2.613,2.6129,2.6128,0,2.5425,2.545,2.5559,2.5616,2.5633,2.5702,2.5751,2.581,2.5833,2.5918,2.5939,2.5975,2.6053,2.6078,2.6173,2.6183,2.6296,2.6292,2.6276,2.6275,2.6338,2.633,2.6542,2.657,2.6403,2.6405,2.6406,0,2.5518,2.5584,2.5648,2.5692,2.5725,2.5797,2.5842,2.5858,2.5906,2.5975,2.6026,2.6103,2.6165,2.629,2.6325,2.6397,2.6394,2.6463,2.6405,2.6398,2.6392,2.6386,2.6392,2.6473,2.6475,2.6476,2.6478,0,2.5677,2.5686,2.5751,2.582,2.5874,2.593,2.5984,2.602,2.6044,2.6098,2.6177,2.6225,2.632,2.6396,2.6469,2.6502,2.6493,2.6496,2.6514,2.651,2.6496,2.6502,2.6303,2.6491,2.6489,2.6488,2.6488,2.6487,2.5789,2.5846,2.5899,2.5972,2.6013,2.6063,2.6121,2.615,2.6216,2.6294,2.63,2.6385,2.6439,2.6535,2.6572,2.6638,2.6618,2.6646,2.6652,2.6658,2.6661,2.6488,2.6652,2.6652,2.6651,2.6651,2.6651,0,2.5946,2.5979,2.6045,2.6119,2.6176,2.6163,2.6221,2.6269,2.6343,2.6394,2.6454,2.6544,2.6617,2.6657,2.673,2.6775,2.6773,2.6793,2.6789,2.6796,2.6676,2.6652,2.6794,2.6794,2.6794,2.6794,2.6794,2.6794,2.6034,2.613,2.6144,2.626,2.6293,2.6375,2.6409,2.6454,2.6494,2.6594,2.6654,2.6679,2.6726,2.6801,2.6867,2.6877,2.6903,2.6926,2.6933,2.682,2.6805,2.6791,2.6768,2.6932,2.6932,2.7047,2.7048,2.7049]},{"header":{"parameterUnit":"m.s-1","parameterCategory":1,"la1":30.2991,"la2":30.254,"lo1":-89.0895,"lo2":-89.0444,"dy":0.0017,"dx":0.0017,"nx":28,"ny":28,"refTime":"2025-07-20T09:00:00:Z","depth":0,"parameterNumber":3,"parameterNumberName":"V-component_of_WINDS"},"data":[0,0,0,0,0,0,0,0,0,0,0,0,0,0,0,0,0,0,0,0,0,0,0,0,0,0,0,0,0,0,0,0,0,0,0,0,0,0,0,0,0,0,0,0,0,0,0,0,0,0,0,0,0,0,0,0,0,0,0.2628,0.2629,0,0.2707,0.2708,0.2709,0.2717,0.2716,0.2715,0.2714,0.2798,0.2801,0.2804,0,0,0,0,0,0,0,0,0,0,0,0,0,0.2486,0.2488,0.2628,0.2629,0.263,0.2707,0.2708,0.2709,0.2717,0.2716,0.2715,0.2714,0.2797,0.2801,0.2804,0,0,0,0,0,0,0,0,0,0,0,0,0,0.2554,0.2489,0.2628,0.2643,0.2645,0.2707,0.2708,0.2709,0.2717,0.2716,0.2714,0.2713,0.2796,0.28,0.2805,0.2858,0,0,0.2819,0.2821,0,0,0,0,0,0,0,0,0.2551,0.256,0.264,0.2642,0.2644,0.2701,0.2689,0.2759,0.2717,0.269,0.2714,0.2713,0.2767,0.2774,0.2791,0.2862,0.2865,0.2819,0.2822,0.2824,0.2825,0,0,0,0,0,0,0,0.2546,0.2556,0.2659,0.2641,0.2644,0.2646,0.2655,0.2702,0.2735,0.2692,0.2693,0.2702,0.2768,0.2787,0.2794,0.2867,0.2819,0.2823,0.2826,0.2828,0.2984,0.2985,0,0,0,0,0,0,0.2538,0.2552,0.2657,0.2662,0.2593,0.265,0.2659,0.2684,0.2734,0.274,0.2703,0.2702,0.278,0.2788,0.2796,0.2862,0.2824,0.2828,0.2831,0.2982,0.2984,0.2986,0,0,0,0,0,0,0.2535,0.2547,0.2654,0.2607,0.2621,0.2654,0.2681,0.2686,0.2705,0.2742,0.2748,0.2716,0.2779,0.279,0.2842,0.2865,0.283,0.2834,0.2981,0.2983,0.2985,0.2993,0,0,0,0,0,0,0.2531,0.2546,0.2566,0.2608,0.2623,0.2697,0.2683,0.2689,0.2713,0.2712,0.2756,0.2762,0.2779,0.2835,0.2847,0.287,0.2838,0.2979,0.2982,0.2984,0.299,0.2995,0.2998,0,0,0,0,0,0.2525,0.2566,0.2567,0.2579,0.2649,0.2699,0.2708,0.2725,0.2714,0.2735,0.2759,0.2761,0.286,0.2841,0.2853,0.2879,0.2978,0.2981,0.2984,0.2989,0.2994,0.2998,0,0,0,0,0,0,0.2527,0.2572,0.2573,0.2628,0.2659,0.27,0.2727,0.273,0.2767,0.2765,0.2786,0.2796,0.2847,0.2868,0.2846,0.2932,0.2918,0.2924,0.2917,0.2922,0.2926,0.292,0.2841,0,0,0,0,0,0.2534,0.257,0.2607,0.2651,0.2667,0.2694,0.2716,0.2727,0.2761,0.2774,0.2802,0.2835,0.2874,0.2899,0.2937,0.2993,0.3003,0.3017,0.3021,0.3024,0.3029,0.306,0.3067,0.2996,0.2996,0.2996,0,0,0.2548,0.2577,0.2598,0.2652,0.2678,0.2715,0.2705,0.2745,0.2773,0.2781,0.2831,0.2852,0.2891,0.2946,0.2971,0.2965,0.305,0.3028,0.303,0.3034,0.3064,0.3071,0.3077,0.2999,0.2998,0.2998,0,0,0.2594,0.2618,0.2658,0.2684,0.2722,0.2739,0.2749,0.2789,0.2802,0.2853,0.2859,0.2893,0.296,0.2987,0.3009,0.3063,0.3067,0.3075,0.3096,0.3126,0.3132,0.3137,0.3156,0.3163,0.308,0.308,0.308,0,0.2607,0.2663,0.2679,0.2718,0.2742,0.2749,0.2789,0.2813,0.2863,0.2879,0.2871,0.2953,0.298,0.3041,0.3054,0.3072,0.3083,0.307,0.3129,0.3134,0.3139,0.3158,0.3166,0.308,0.308,0.308,0.308,0,0.2677,0.2716,0.2743,0.2789,0.2816,0.2856,0.2878,0.2903,0.2911,0.293,0.2981,0.3013,0.3057,0.3072,0.3081,0.3134,0.3129,0.3125,0.3111,0.3147,0.3165,0.3172,0.3082,0.3081,0.3081,0.3081,0,0,0.2728,0.278,0.279,0.2811,0.2853,0.2883,0.2923,0.2965,0.2986,0.3019,0.3054,0.3109,0.3105,0.3131,0.3142,0.3169,0.3209,0.3161,0.3163,0.317,0.327,0.3273,0.3281,0.3211,0.3213,0.3214,0.3267,0,0.2778,0.2849,0.2864,0.2925,0.2961,0.2967,0.3002,0.3032,0.305,0.3084,0.3104,0.3142,0.3134,0.315,0.3176,0.3199,0.323,0.3195,0.3245,0.3246,0.3236,0.3291,0.3295,0.3343,0.3274,0.3275,0.3276,0,0.2847,0.288,0.2944,0.2981,0.2996,0.3028,0.3067,0.3098,0.3132,0.3144,0.3171,0.318,0.3222,0.3205,0.3264,0.324,0.3261,0.3275,0.3277,0.3284,0.3264,0.3299,0.3359,0.3367,0.3287,0.3287,0.3286,0,0.2877,0.2938,0.2985,0.3002,0.3045,0.3067,0.3087,0.3119,0.3143,0.3177,0.3193,0.3232,0.3254,0.3284,0.3303,0.3289,0.3361,0.3345,0.3372,0.3372,0.3388,0.3387,0.3453,0.34,0.34,0.34,0.34,0,0.2932,0.2972,0.2999,0.3027,0.3072,0.3088,0.3132,0.3152,0.318,0.3213,0.3221,0.3252,0.3275,0.3309,0.3324,0.3371,0.338,0.3391,0.3395,0.3391,0.339,0.3406,0.3403,0.3402,0.3401,0.3401,0.3401,0,0.2974,0.2994,0.3045,0.3081,0.3091,0.3122,0.3154,0.3182,0.32,0.3241,0.3252,0.328,0.3321,0.3342,0.3393,0.3403,0.3456,0.3457,0.3444,0.3446,0.3471,0.3469,0.3551,0.3562,0.3501,0.3502,0.3502,0,0.3009,0.3039,0.3078,0.31,0.3119,0.3155,0.3179,0.3196,0.3221,0.3261,0.3285,0.3325,0.3359,0.3423,0.3449,0.3488,0.3491,0.3517,0.3497,0.3492,0.3492,0.349,0.3493,0.3521,0.3521,0.3522,0.3522,0,0.3067,0.3075,0.3109,0.3146,0.3173,0.3204,0.3234,0.3251,0.3274,0.3301,0.3342,0.3368,0.3419,0.346,0.35,0.3521,0.3526,0.3528,0.3536,0.3533,0.3524,0.3529,0.3454,0.3526,0.3526,0.3525,0.3525,0.3525,0.3107,0.3134,0.3165,0.3202,0.3226,0.3254,0.3282,0.3302,0.3336,0.3378,0.3387,0.343,0.3463,0.3518,0.3539,0.3574,0.3569,0.3581,0.3584,0.3587,0.3588,0.3517,0.3581,0.3581,0.3581,0.3581,0.3581,0,0.3167,0.3187,0.322,0.3261,0.329,0.329,0.3323,0.3348,0.3385,0.3415,0.3447,0.3494,0.3533,0.356,0.36,0.3623,0.3626,0.3632,0.3631,0.3636,0.359,0.3579,0.3629,0.3629,0.3629,0.3629,0.3629,0.3629,0.3201,0.3247,0.3258,0.3315,0.3335,0.3377,0.3396,0.3421,0.3444,0.3496,0.3528,0.3545,0.3574,0.3616,0.3652,0.3659,0.3673,0.368,0.3688,0.3645,0.3639,0.3635,0.3624,0.3683,0.3683,0.3731,0.3731,0.3731]}]]